Location: B�rgermoos
(47.6500°N, 9.0667°E)
Time: 09:34:15
(UTC+00:00)

A-11 Canister half - Pass Details

Date: 12 August 2021
Orbit: 1526 x 1683 km, 47.3° (Epoch: 20 September)

Event Time Altitude Azimuth Distance (km) Brightness Sun altitude
Rises 08:12:58 0° 235° (SW) 4,904 11.4 38.1°
Reaches altitude 10° 08:16:08 10° 233° (SW) 3,928 11.0 38.6°
Maximum altitude 08:26:07 66° 154° (SSE) 1,808 10.6 40.1°
Drops below altitude 10° 08:36:05 10° 75° (ENE) 3,929 11.8 41.6°
Sets 08:39:15 0° 73° (ENE) 4,905 12.1 42.1°
